Flag for Chile Weather past 2 weeks in Concepción, Chile

Now
54 °F

Drizzle. Mostly cloudy.


Feels Like: 49 °F
Forecast: 49 / 54 °F
Wind: 16 mph from North

Location: Concepcion Airport

Current Time: Jul 30, 2015 at 7:13:29 AM

Latest Report: Jul 30, 2015 at 7:00 AM


Visibility: 4 mi

Pressure: 29.83 "Hg

Humidity: 94%

Dew point: 52 °F

Location of ConcepciónLocation

Historic Weather in Concepción — Graph

°F

Concepción temperature yesterday

Maximum temperature yesterday: 57 °F (at 4:00 PM)
Minimum temperature yesterday: 46 °F (at 5:00 AM)
Average temperature yesterday: 51 °F

Past Weeks' High & Low Weather Summary

 TemperatureHumidityPressure
High59 °F (Jul 27, 2:00 PM)100% (Jul 16, 7:00 AM)30.48 "Hg (Jul 16, 7:00 AM)
Low32 °F (Jul 20, 8:00 AM)47% (Jul 20, 2:00 PM)29.74 "Hg (Jul 26, 3:00 PM)
Average50 °F90%30.10 "Hg
* Reported Jul 15 6:00 AM — Jul 30 6:00 AM, Concepción, Weather by CustomWeather, © 2015

Note: Actual official high and low records may vary slightly from our data, if they occured in-between our weather recording intervals... More about our weather records

Advertising

Concepción weather history for previous 24 hours

 ConditionsComfort  
Time TempWeatherWind HumidityBarometerVisibility
6:00 AM
Thu, Jul 30
54 °FSprinkles. Mostly cloudy.14 mph94%29.83 "Hg5 mi
5:00 AM54 °FSprinkles. Mostly cloudy.16 mph88%29.86 "Hg4 mi
4:00 AM55 °FSprinkles. Partly cloudy.17 mph72%29.86 "HgN/A
3:00 AM55 °FPartly cloudy.12 mph77%29.86 "HgN/A
2:00 AM54 °FPartly cloudy.12 mph82%29.86 "HgN/A
1:00 AM54 °FPartly cloudy.9 mph82%29.89 "HgN/A
12:00 AM54 °FPartly cloudy.3 mph82%29.89 "HgN/A
11:00 PM
Wed, Jul 29
54 °FDrizzle. Mostly cloudy.3 mph88%29.92 "HgN/A
10:00 PM54 °FDrizzle. Mostly cloudy.2 mph88%29.92 "Hg5 mi
9:00 PM54 °FClear.2 mph82%29.92 "Hg10 mi
8:00 PM54 °FClear.3 mph88%29.92 "Hg10 mi
7:00 PM54 °FClear.5 mph82%29.92 "Hg10 mi
6:00 PM55 °FPassing clouds.6 mph88%29.92 "HgN/A
5:00 PM57 °FSunny.No wind82%29.92 "Hg10 mi
4:00 PM57 °FSunny.5 mph77%29.89 "Hg10 mi
3:00 PM55 °FSunny.8 mph82%29.92 "Hg10 mi
2:00 PM54 °FSunny.9 mph88%29.95 "Hg10 mi
1:00 PM54 °FSunny.10 mph82%29.98 "Hg10 mi
12:00 PM52 °FSunny.10 mph88%30.01 "Hg10 mi
11:00 AM50 °FBroken clouds.6 mph94%30.01 "HgN/A
10:00 AM46 °FScattered clouds.5 mph100%30.04 "HgN/A
9:00 AM46 °FScattered clouds.3 mph93%30.04 "HgN/A
8:00 AM46 °FPassing clouds.5 mph93%30.04 "HgN/A
7:00 AM46 °FClear.No wind93%30.04 "Hg10 mi
Weather by CustomWeather, © 2015

See weather overviewHow to use our weather pages